DW9758 Weather Reports


time (UTC)temp
C
wind
direction
speed
KPH
gust
KPH
rain 1hr
cm
rain 24hr
cm
rain mn
cm
humidity
%
barometer
mb
20260507113104 11 217 0.0 6.4 0.00 0.30 0.05 70 1013.1
20260507111542 12 145 0.0 11.3 0.00 0.30 0.05 72 1013.0
20260507110042 11 165 0.0 11.3 0.00 0.30 0.05 74 1013.1
20260507104549 11 149 0.0 6.4 0.00 0.30 0.05 72 1013.2
20260507103040 12 194 0.0 3.2 0.00 0.30 0.05 72 1013.2
20260507101539 12 197 0.0 6.4 0.00 0.30 0.05 72 1013.2
20260507100046 12 180 0.0 6.4 0.00 0.30 0.05 72 1013.2
20260507094537 11 194 0.0 0.0 0.00 0.30 0.05 72 1013.3
20260507093035 11 176 0.0 4.8 0.00 0.30 0.05 72 1013.3
20260507091539 11 203 0.0 0.0 0.00 0.30 0.05 75 1013.2
20260507090029 11 209 1.6 11.3 0.00 0.30 0.05 73 1013.2
20260507084544 10 192 1.6 6.4 0.00 0.33 0.05 76 1013.1
20260507083026 10 165 0.0 0.0 0.00 0.33 0.05 76 1012.9
20260507081521 9 165 0.0 0.0 0.00 0.33 0.05 81 1013.1
20260507080017 8 182 0.0 0.0 0.03 0.33 0.05 82 1013.1
20260507074516 8 163 0.0 4.8 0.05 0.33 0.05 86 1013.1
20260507073012 7 180 0.0 1.6 0.05 0.33 0.05 89 1012.9
20260507071516 7 259 0.0 1.6 0.05 0.33 0.05 92 1013.2
20260507070017 6 246 0.0 0.0 0.05 0.30 0.05 92 1013.1
20260507064508 7 241 0.0 0.0 0.00 0.25 0.00 90 1013.0
20260507063007 7 230 0.0 1.6 0.00 0.25 0.00 90 1012.7
20260507061503 6 261 0.0 4.8 0.00 0.25 0.00 90 1012.7
20260507060001 6 359 0.0 0.0 0.00 0.25 0.00 92 1012.6
20260507054559 6 359 0.0 0.0 0.00 0.25 0.00 92 1012.4
20260507053058 6 359 0.0 0.0 0.00 0.25 0.00 93 1012.0
20260507051606 6 359 0.0 0.0 0.00 0.25 0.00 93 1012.0
20260507050108 5 359 0.0 0.0 0.00 0.25 0.00 94 1011.9
20260507044557 5 359 0.0 0.0 0.00 0.25 0.00 93 1011.8
20260507043052 5 359 0.0 0.0 0.00 0.25 0.00 93 1011.6
20260507041550 6 359 0.0 0.0 0.00 0.25 0.00 93 1011.4
20260507040051 5 359 0.0 0.0 0.00 0.25 0.00 93 1011.4
20260507034548 5 359 0.0 0.0 0.00 0.25 0.00 94 1011.3
20260507033049 5 359 0.0 0.0 0.00 0.25 0.00 94 1011.3
20260507031548 5 359 0.0 0.0 0.00 0.25 0.00 94 1011.2
20260507030047 5 359 0.0 0.0 0.00 0.25 0.00 93 1011.1
20260507024548 5 359 0.0 0.0 0.00 0.25 0.00 93 1011.0
20260507023042 5 359 0.0 0.0 0.00 0.25 0.00 93 1010.9
20260507021554 5 359 0.0 0.0 0.00 0.25 0.00 93 1010.9
20260507020041 5 359 0.0 0.0 0.00 0.25 0.00 93 1010.8
20260507014540 5 359 0.0 0.0 0.00 0.25 0.00 93 1010.8
20260507013038 5 359 0.0 0.0 0.00 0.25 0.00 93 1010.7
20260507011539 5 359 0.0 0.0 0.00 0.25 0.00 93 1010.8
20260507010043 5 359 0.0 0.0 0.00 0.25 0.00 93 1010.7
20260507004536 5 359 0.0 0.0 0.00 0.25 0.00 92 1010.6
20260507003034 6 359 0.0 0.0 0.00 0.25 0.00 93 1010.4
20260507001535 6 359 0.0 0.0 0.00 0.25 0.00 92 1010.4
20260507000036 6 359 0.0 0.0 0.00 0.25 0.00 93 1010.5
20260506234535 6 359 0.0 0.0 0.00 0.25 0.00 92 1010.3
20260506233031 6 359 0.0 0.0 0.00 0.25 0.00 93 1010.3
20260506231530 6 359 0.0 0.0 0.00 0.25 0.00 93 1010.5
20260506230032 6 359 0.0 0.0 0.00 0.25 0.00 93 1010.5
20260506224529 6 329 0.0 0.0 0.00 0.25 0.00 92 1010.5
20260506223023 6 326 0.0 0.0 0.00 0.25 0.00 93 1010.3
20260506221523 6 326 0.0 0.0 0.00 0.25 0.00 92 1010.2
20260506220028 6 326 0.0 0.0 0.00 0.25 0.00 92 1010.2
20260506214519 6 326 0.0 0.0 0.00 0.25 0.25 92 1010.3
20260506213022 6 326 0.0 0.0 0.00 0.25 0.25 92 1010.0
20260506211516 6 326 0.0 0.0 0.00 0.25 0.25 91 1010.1
20260506210015 6 327 0.0 1.6 0.00 0.25 0.25 91 1009.9
20260506204515 6 330 0.0 0.0 0.00 0.25 0.25 92 1010.0
20260506203022 6 330 0.0 0.0 0.00 0.25 0.25 92 1009.9
20260506201513 6 330 0.0 0.0 0.00 0.25 0.25 91 1009.7
20260506200011 6 330 0.0 0.0 0.00 0.25 0.25 91 1009.6
20260506194512 6 330 0.0 0.0 0.00 0.38 0.25 91 1009.6
20260506193014 6 330 0.0 0.0 0.00 0.38 0.25 90 1009.2
20260506191511 6 330 0.0 4.8 0.00 0.38 0.25 90 1009.0
20260506190008 6 292 0.0 0.0 0.00 0.38 0.25 90 1008.9
20260506184505 6 292 0.0 1.6 0.00 0.56 0.25 90 1008.6
20260506183005 6 273 0.0 0.0 0.00 0.56 0.25 89 1008.4
20260506181506 7 278 0.0 0.0 0.00 0.56 0.25 88 1008.0
20260506180007 7 255 0.0 0.0 0.00 0.56 0.25 87 1008.1
20260506174503 7 238 0.0 0.0 0.00 0.58 0.25 86 1008.1
20260506173003 8 251 0.0 0.0 0.00 0.58 0.25 85 1007.9
20260506171505 8 261 0.0 12.9 0.00 0.58 0.25 83 1007.9
20260506170002 8 247 0.0 0.0 0.00 0.58 0.25 83 1007.8
20260506164601 9 217 1.6 14.5 0.00 0.58 0.25 80 1007.5
20260506163104 10 188 0.0 0.0 0.00 0.58 0.25 77 1007.3
20260506161606 9 121 0.0 0.0 0.00 0.58 0.25 83 1007.3
20260506160100 8 121 0.0 0.0 0.03 0.58 0.25 84 1007.2
20260506154559 8 120 0.0 0.0 0.05 0.58 0.25 87 1007.0
20260506153058 7 120 0.0 0.0 0.15 0.58 0.25 87 1007.5
20260506151608 7 120 0.0 0.0 0.20 0.58 0.25 89 1007.6
20260506150057 7 120 0.0 0.0 0.18 0.56 0.23 88 1007.8
20260506144606 7 184 0.0 0.0 0.13 0.51 0.18 88 1007.9
20260506143058 7 184 0.0 0.0 0.05 0.43 0.13 85 1007.7
20260506141557 7 181 0.0 9.7 0.05 0.38 0.05 82 1007.5
20260506140105 8 231 1.6 12.9 0.05 0.38 0.05 80 1007.0
20260506134554 8 175 1.6 14.5 0.05 0.38 0.05 81 1006.5
20260506133053 9 268 1.6 9.7 0.05 0.38 0.05 79 1006.1
20260506131555 11 221 0.0 9.7 0.00 0.33 0.03 78 1005.0
20260506130110 12 180 1.6 4.8 0.00 0.33 0.03 75 1004.6
20260506124552 12 159 0.0 6.4 0.00 0.33 0.03 74 1004.6
20260506123051 13 254 0.0 0.0 0.00 0.33 0.03 74 1004.4
20260506121551 12 241 0.0 9.7 0.00 0.33 0.03 78 1004.2
20260506120048 12 217 0.0 0.0 0.00 0.33 0.03 80 1004.2
20260506114548 11 205 0.0 0.0 0.00 0.33 0.03 77 1004.4